Regional Weather Roundup
Issued by NWS

Home | Current Version | Previous Version | Text Only | Print | Product List | Glossary On
Versions: 1 2 3 4 5 6 7 8 9 10 11 12 13 14 15 16 17 18 19 20 21 22 23 24 25 26 27 28 29 30 31 32 33 34 35 36 37 38 39 40 41 42 43 44 45 46 47 48 49 50
000
ASUS44 KLUB 190201
RWRTX
WEST TEXAS WEATHER ROUNDUP
NATIONAL WEATHER SERVICE LUBBOCK TX
900 PM CDT FRI APR 18 2014

NOTE: "FAIR" INDICATES FEW OR NO CLOUDS BELOW 12,000 FEET WITH NO
SIGNIFICANT WEATHER AND/OR OBSTRUCTIONS TO VISIBILITY.

TXZ004-006>008-010-012-014-016-OKZ002-190300-
TEXAS PANHANDLE/OKLAHOMA PANHANDLE

CITY           SKY/WX    TMP DP  RH WIND       PRES   REMARKS
AMARILLO       CLOUDY    65  43  44 S16       30.07R
BORGER         MOCLDY    64  44  48 SE16G28   30.04S
DALHART        CLOUDY    66  40  38 S20       30.03R
GUYMON         MOCLDY    64  44  48 S18G25    29.98R
$$

TXZ026-029-035-045-048-190300-
SOUTHERN PANHANDLE/SOUTH PLAINS/ROLLING PLAINS

CITY           SKY/WX    TMP DP  RH WIND       PRES   REMARKS
CHILDRESS      MOCLDY    61  47  59 SE9       30.10R
LUBBOCK        CLOUDY    64  45  49 S13       30.10R
SNYDER         MOCLDY    69  46  42 SE8       30.10R
$$

TXZ052-054-060>062-072-078-127-140-154-169-190300-
PERMIAN BASIN/CONCHO VALLEY/BIG COUNTRY/EDWARDS PLATEAU

CITY           SKY/WX    TMP DP  RH WIND       PRES   REMARKS
ABILENE        CLOUDY    67  45  45 SE9       30.11R
BROWNWOOD      MOCLDY    64  50  59 E6        30.12R
JUNCTION       PTCLDY    72  46  39 E8        30.09R
MIDLAND        PTCLDY    71  45  39 SE10      30.06R
ODESSA         PTCLDY    71  45  39 SE10      30.07R
SAN ANGELO     CLEAR     70  44  39 E12       30.08R
WINK           PTCLDY    72  45  37 SE13      30.02R
$$

TXZ055-058-074-075-080-082-190300-
FAR WEST/SOUTHWEST MOUNTAINS/TRANS PECOS

CITY           SKY/WX    TMP DP  RH WIND       PRES   REMARKS
DRYDEN           N/A     71  50  47 E14       30.04R
EL PASO        CLOUDY    77  35  21 S15G30    29.98S
FORT STOCKTON  PTCLDY    68  46  45 SE16      30.06R
GUADALUPE PASS CLOUDY    64  42  44 E29       30.10R
MARFA          PTCLDY    64  50  59 E10G17    30.11F
PECOS          PTCLDY    73  47  40 E17       30.00R
$$

TXZ014-016-019-021>030-083-190300
TEXAS TECH WEST TEXAS MESONET/TEXAS PANHANDLE/NORTHERN SOUTH PLAINS

CITY           SKY/WX    TMP DP  RH WIND       PRES   REMARKS
ABERNATHY 5ENE   N/A     63  45  51 SE10      30.11R
AMARILLO 9NNE    N/A     66  43  42 S15       30.04R
AMARILLO 7SSE    N/A     64  43  46 S15       30.08R
AMHERST 1NE      N/A     63  46  52 S12       30.10R
BOOTLEG 11WNW    N/A     61  42  48 S15       30.09R
CANADIAN 6E      N/A     59  46  60 SE15      30.06R
CAPROCK CYN SP   N/A     63  45  53 SE10      30.09S
CHILDRESS 2NNE   N/A     61  48  64 SE12      30.09R
CLARENDON 2WSW   N/A     62  44  53 SE13      30.09R
CLAUDE 12SW      N/A     65  44  46 SE22      30.07S
DIMMITT 2NE      N/A     62  44  52 S15       30.09R
FLOYDADA 2NNE    N/A     62  41  47 SE10      30.10S
FRIONA 2NE       N/A     63  43  49 S14       30.09R
GOODLETT 3W      N/A     60  47  64 SE7       30.10R
HART 3N          N/A     63  45  52 S12       30.09R
HEREFORD 2NW     N/A     64  42  45 S16       30.07S
MCLEAN 1E        N/A     58  45  62 SE10      30.08R
MEMPHIS 1NE      N/A     63  46  53 SE9       30.09R
MULESHOE 2SSW    N/A     63  45  51 SE13      30.09R
OLTON 6S         N/A     64  44  49 S14       30.10R
PALO DURO SP     N/A     66  44  45 S13       30.08R
PAMPA 2E         N/A     58  46  62 SE16      30.07S
PLAINVIEW 1S     N/A     64  46  53 S12       30.09R
SILVERTON 7ESE   N/A     62  42  49 SE13      30.10R
TULIA 2ENE       N/A     63  46  54 SE14      30.09R
TURKEY 2WSW      N/A     63  46  54 SE10      30.08R
UMBARGER 3NNE    N/A     64  43  46 S15       30.07S
$$

TXZ033>036-039>041-045>048-190300
TEXAS TECH WEST TEXAS MESONET/SOUTH PLAINS

CITY           SKY/WX    TMP DP  RH WIND       PRES   REMARKS
AIKEN 3WSW       N/A     60  45  57 S9        30.11R
ANDREWS 2NE      N/A     69  40  35 SE8       30.07R
ANTON 6SSW       N/A     64  47  54 SE12      30.10R
BROWNFIELD 2S    N/A     62  44  51 SE9       30.09S
DENVR CTY 7WNW   N/A     62  43  49 SE8       30.08S
GAIL 2ESE        N/A     67  44  43 SE7       30.07S
LAMESA 2SE       N/A     66  45  46 SE9       30.08S
LEVELLAND 4S     N/A     62  44  50 SE8       30.10S
LUBBOCK 3WNW     N/A     65  45  48 SE12      30.10R
MORTON 1ENE      N/A     62  44  50 SE9       30.10R
ODONNELL 1N      N/A     64  41  42 SE5       30.09S
PLAINS 3N        N/A     63  43  48 SE8       30.09R
RALLS 1SE        N/A     63  42  46 SE9       30.11S
REESE CENTER     N/A     63  44  50 SE10      30.10R
SEAGRAVES 1SW    N/A     65  45  49 SE6       30.08S
SEMINOLE 2NNE    N/A     64  43  46 SE8       30.08R
SLATON 2NE       N/A     63  43  48 SE10      30.10R
SNYDER 3E        N/A     66  43  42 SE10      30.09S
SUNDOWN 8SW      N/A     62  44  52 SE8       30.09S
TAHOKA 3NNE      N/A     63  44  49 SE8       30.09R
WOLFFORTH 6SSW   N/A     64  43  47 SE8       30.10R
$$

TXZ031-032-036>038-042>044-190300-
TEXAS TECH WEST TEXAS MESONET/ROLLING PLAINS

CITY           SKY/WX    TMP DP  RH WIND       PRES   REMARKS
ASPERMONT 3NE    N/A     65  45  48 E6        30.09S
FLUVANNA 3WNW    N/A     65  41  41 E7        30.09R
GRAHAM 5SSW      N/A     65  42  43 SE9       30.09S
GUTHRIE 10WSW    N/A     63  45  52 E8        30.09S
HASKELL 1NW      N/A     64  46  50 E6        30.10R
JAYTON 1SSE      N/A     65  46  50 E8        30.09S
KNOX CITY 3NW    N/A     61  45  57 SE7       30.10S
LK A HENRY 1NW   N/A     66  44  44 E6        30.08S
NORTHFIELD 1S    N/A     63  47  55 SE9       30.09R
ODELL 4ENE       N/A     61  52  71 SE7       30.11R
PADUCAH 10SW     N/A     63  47  55 SE9       30.10R
POST 1NE         N/A     64  40  42 SE6       30.09R
RRING SPRGS 3N   N/A     63  46  52 SE8       30.10R
SEYMOUR 3NW      N/A     60  52  75 SE5       30.10S
SPUR 1W          N/A     64  42  45 SE5       30.08S
WEINERT 2NNE     N/A     63  48  58 SE7       30.10S
WHITE RVR 6NE    N/A     64  42  44 SE8       30.09S
$$

TXZ052-054-060>062-072-078-127-140-154-169-190300-
TEXAS TECH WEST TEXAS MESONET/PERMIAN BASIN/
CONCHO VALLEY/BIG COUNTRY/EDWARDS PLATEAU

CITY           SKY/WX    TMP DP  RH WIND       PRES   REMARKS
COYANOSA 2N      N/A     72  46  40 E12       30.03R
JUNCTION 1SSW    N/A     73  47  40 E3        30.09R
MERTZON 3NNE     N/A     70  46  42 E7        30.09R
SAN ANGELO 7NW   N/A     70  42  37 E9        30.09S
STRLNG CT 4WSW   N/A     69  45  42 E8        30.08F
ST LAWRNCE 5SW   N/A     69  40  35 E12       30.06F
SWEETWATR 11SW   N/A     65  44  46 SE8       30.12R
WALL 1E          N/A     68  42  38 E10       30.10R
$$

TXZ055-058-074-075-080-082-190300-
TEXAS TECH WEST TEXAS MESONET/FAR WEST/SOUTHWEST MOUNTAINS/TRANS PECOS

CITY           SKY/WX    TMP DP  RH WIND       PRES   REMARKS
PRSMN GAP BBNP   N/A     72  52  50 NE24      30.01S
$$



USA.gov is the U.S. government's official web portal to all federal, state and local government web resources and services.